Tracking 25710 objects as of 5-Jul-2022
HD Live streaming from Space Station
objects crossing your sky now

FENGYUN 1C DEB

Track FENGYUN 1C DEB now!
10-day predictions


NORAD ID: 30826
Int'l Code: 1999-025AVL
Perigee: 553.0 km
Apogee: 822.6 km
Inclination: 98.8 °
Period: 98.4 minutes
Semi major axis: 7058 km
RCS: 0.0008 m2 (small)
Launch date: May 10, 1999
Source: People's Republic of China (PRC)
Launch site: Taiyaun Space Center, China (TSC)

Note: This is SATELLITE DEBRIS
aabbcc
Your satellite tracking list
Your tracking list is empty




NASA's NSSDC Master Catalog

Two Line Element Set (TLE):
1 30826U 99025AVL 22185.95178359  .00000636  00000-0  10377-3 0  9995
2 30826  98.8211 257.6061 0190919 320.5908 215.5886 14.63881752818055
Source of the keplerian elements: AFSPC